Home   Weather   Stans   Past weeks

Flag for Switzerland Past Weather in Stans, Nidwalden, Switzerland — Yesterday and Last 2 Weeks

Now
62 °F

Cool.


Feels Like: 62 °F
Forecast: 61 / 73 °F
Wind: 2 mph from Southwest

Location: Giswil

Current Time: Jul 23, 2017 at 1:07:36 am

Latest Report: Jul 23, 2017 at 12:00 am


Visibility: N/A

Pressure: 30.03 "Hg

Humidity: 99%

Dew Point: 62 °F

Location of StansLocation

Past Weather in Stans — Graph

°F

Stans Temperature Yesterday

Maximum temperature yesterday: 79 °F (at 4:00 pm)
Minimum temperature yesterday: 58 °F (at 6:00 am)
Average temperature yesterday: 68 °F

High & Low Weather Summary for the Past Weeks

 TemperatureHumidityPressure
High87 °F (Jul 8, 4:00 pm)100% (Jul 8, 10:00 pm)30.30 "Hg (Jul 8, 10:00 pm)
Low50 °F (Jul 16, 3:00 am)39% (Jul 14, 4:00 pm)29.78 "Hg (Jul 21, 5:00 pm)
Average67 °F79%30.02 "Hg
* Reported Jul 7 11:00 pm — Jul 22 11:00 pm, Stans. Weather by CustomWeather, © 2017

Note: Actual official high and low records may vary slightly from our data, if they occured in-between our weather recording intervals... More about our weather records

Advertising

Stans Weather History for the Previous 24 Hours

Scroll right to see more
 ConditionsComfort  
Time TempWeatherWind HumidityBarometerVisibility
11:00 pm
Sat, Jul 22
62 °FCool.2 mph94%30.02 "HgN/A
10:00 pm71 °FMild.7 mph78%29.93 "HgN/A
9:00 pm72 °FMild.1 mph76%29.91 "HgN/A
8:00 pm74 °FMild.No wind73%29.90 "HgN/A
7:00 pm78 °FWarm.No wind55%29.89 "HgN/A
6:00 pm78 °FWarm.2 mph58%29.90 "HgN/A
5:00 pm76 °FMild.2 mph69%29.91 "HgN/A
4:00 pm79 °FWarm.1 mph55%29.90 "HgN/A
2:00 pm78 °FWarm.2 mph52%29.92 "HgN/A
1:00 pm75 °FMild.2 mph60%29.93 "HgN/A
12:00 pm73 °FMild.2 mph63%29.95 "HgN/A
11:00 am70 °FMild.2 mph66%29.97 "HgN/A
10:00 am68 °FMild.2 mph76%29.98 "HgN/A
9:00 am65 °FMild.No wind83%29.99 "HgN/A
8:00 am62 °FCool.1 mph97%29.99 "HgN/A
7:00 am58 °FCool.2 mph100%29.99 "HgN/A
6:00 am58 °FCool.1 mph99%29.99 "HgN/A
5:00 am61 °FCool.No wind99%29.96 "HgN/A
4:00 am61 °FCool.2 mph99%29.96 "HgN/A
3:00 am62 °FCool.2 mph99%29.96 "HgN/A
2:00 am62 °FCool.2 mph100%29.96 "HgN/A
1:00 am62 °FMild.1 mph99%29.96 "HgN/A
Weather by CustomWeather, © 2017

See weather overviewHow to use our weather pages